Location: Bartshausen
(51.8454°N, 9.8167°E)
Time: 03:04:12
(UTC+00:00)

Cosmos 1943 Rocket - Pass Details

Date: 08 November 2025
Orbit: 812 x 841 km, 71.0° (Epoch: 15 December)

Event Time Altitude Azimuth Distance (km) Brightness Sun altitude
Exits shadow 04:06:25 24° 329° (NNW) 1,641 3.4 -21.9°
Maximum altitude 04:09:51 89° 244° (WSW) 825 2.0 -21.4°
Drops below altitude 10° 04:15:22 10° 152° (SSE) 2,399 4.9 -20.5°
Sets 04:17:46 0° 152° (SSE) 3,325 5.7 -20.2°
